Date String (YYYY-MM-DD hh:mm:ss) UTC,Instrument flags,Ambient pressure (hPa),Sample flow (lpm),Bypass flow (lpm),Sample temperature (°C),Ambient temperature (°C),ASC tube jacket temperature (°C),LED temperature (°C),Box temperature (°C),Sample RH (%),Span deviation,Mass concentration (μg/m³),Mass concentration (μg/m³),Mass concentration (μg/m³)
DateTimeUTC,F1_M11,P_M11,Q1_M11,Q2_M11,T1_M11,T2_M11,T3_M11,T4_M11,T5_M11,U1_M11,ZSPAN_M11,X0_M11,X2_M11,X1_M11
2023-01-30 07:00:00,,0826.1,4.99,0.00,22.8,22.9,00.0,31.4,24.7,03.7,0001.1,0006.61,0004.26,0003.98
2023-01-30 07:01:00,,0826.0,5.03,0.00,22.8,22.3,00.0,31.4,24.5,03.7,-000.3,0006.68,0004.26,0003.98
2023-01-30 07:02:00,,0825.9,5.00,0.00,22.7,21.8,00.0,31.5,24.4,03.7,-000.6,0006.83,0004.30,0004.01
2023-01-30 07:03:00,,0826.1,5.02,0.00,22.6,21.4,00.0,31.5,24.3,03.7,-000.6,0006.77,0004.29,0004.02
2023-01-30 07:04:00,,0826.2,5.00,0.00,22.6,21.1,00.0,31.5,24.2,03.7,0000.1,0006.80,0004.31,0004.03
2023-01-30 07:05:00,,0826.1,5.00,0.00,22.6,20.8,00.0,31.4,24.1,03.7,-000.2,0006.87,0004.33,0004.04
2023-01-30 07:06:00,,0826.0,5.01,0.00,22.5,20.7,00.0,31.4,24.0,03.8,-000.4,0006.92,0004.35,0004.07
2023-01-30 07:07:00,,0826.0,5.01,0.00,22.5,21.5,00.0,31.4,24.2,03.7,-000.0,0007.02,0004.38,0004.09
2023-01-30 07:08:00,,0826.0,5.00,0.00,22.6,22.4,00.0,31.4,24.5,03.7,0000.8,0007.11,0004.39,0004.10
2023-01-30 07:09:00,,0826.0,5.00,0.00,22.7,23.2,00.0,31.4,24.7,03.7,0001.0,0007.23,0004.40,0004.11
2023-01-30 07:10:00,,0826.0,4.98,0.00,22.8,23.0,00.0,31.4,24.7,03.7,0001.2,0007.30,0004.40,0004.12
2023-01-30 07:11:00,,0826.0,5.01,0.00,22.8,22.4,00.0,31.5,24.6,03.7,0001.6,0007.25,0004.41,0004.13
2023-01-30 07:12:00,,0825.8,5.01,0.00,22.7,21.9,00.0,31.5,24.4,03.7,0002.0,0007.39,0004.47,0004.16
2023-01-30 07:13:00,,0825.9,5.00,0.00,22.7,21.4,00.0,31.5,24.3,03.7,0002.2,0007.43,0004.48,0004.18
2023-01-30 07:14:00,,0825.9,5.01,0.00,22.6,21.1,00.0,31.5,24.2,03.7,0002.1,0007.60,0004.51,0004.20
2023-01-30 07:15:00,,0825.9,5.01,0.00,22.6,20.8,00.0,31.5,24.1,03.7,0001.4,0008.14,0004.53,0004.22
2023-01-30 07:16:00,,0825.9,4.99,0.00,22.5,20.6,00.0,31.5,24.0,03.7,0001.3,0008.14,0004.54,0004.25
2023-01-30 07:17:00,,0825.9,5.02,0.00,22.5,21.3,00.0,31.4,24.2,03.8,0001.4,0008.17,0004.56,0004.26
2023-01-30 07:18:00,,0826.0,5.00,0.00,22.6,22.3,00.0,31.4,24.4,03.7,0001.7,0008.16,0004.57,0004.28
2023-01-30 07:19:00,,0825.9,4.99,0.00,22.7,22.9,00.0,31.4,24.6,03.7,0001.4,0008.13,0004.56,0004.29
2023-01-30 07:20:00,,0826.0,5.01,0.00,22.7,22.5,00.0,31.5,24.6,03.7,0001.6,0008.23,0004.57,0004.31
2023-01-30 07:21:00,,0825.8,5.00,0.00,22.7,21.9,00.0,31.5,24.4,03.7,0001.1,0008.40,0004.61,0004.33
2023-01-30 07:22:00,,0825.8,4.99,0.00,22.7,21.5,00.0,31.5,24.3,03.7,0000.9,0008.53,0004.65,0004.34
2023-01-30 07:23:00,,0825.7,5.00,0.00,22.6,21.1,00.0,31.5,24.2,03.7,0001.1,0008.48,0004.63,0004.35
2023-01-30 07:24:00,,0825.8,5.00,0.00,22.5,20.8,00.0,31.5,24.0,03.8,0001.1,0008.43,0004.65,0004.37
2023-01-30 07:25:00,,0825.7,5.02,0.00,22.5,20.9,00.0,31.4,24.0,03.8,0000.9,0008.39,0004.65,0004.37
2023-01-30 07:26:00,,0825.7,4.99,0.00,22.6,21.8,00.0,31.4,24.3,03.8,0001.3,0007.85,0004.67,0004.37
2023-01-30 07:27:00,,0825.9,4.99,0.00,22.7,22.7,00.0,31.4,24.6,03.7,0001.2,0007.83,0004.65,0004.35
2023-01-30 07:28:00,,0825.7,4.99,0.00,22.8,23.2,00.0,31.4,24.7,03.7,0001.2,0007.78,0004.61,0004.32
2023-01-30 07:29:00,,0825.7,5.00,0.00,22.8,22.7,00.0,31.5,24.7,03.7,0000.9,0007.77,0004.58,0004.29
2023-01-30 07:30:00,,0825.6,5.03,0.00,22.8,22.1,00.0,31.5,24.5,03.7,0000.5,0007.73,0004.55,0004.25
2023-01-30 07:31:00,,0825.6,5.00,0.00,22.7,21.6,00.0,31.5,24.4,03.7,0000.3,0007.66,0004.51,0004.22
2023-01-30 07:32:00,,0825.6,5.00,0.00,22.7,21.2,00.0,31.5,24.2,03.7,0000.4,0007.33,0004.46,0004.18
2023-01-30 07:33:00,,0825.6,5.00,0.00,22.6,20.9,00.0,31.5,24.1,03.7,0000.0,0007.06,0004.39,0004.14
2023-01-30 07:34:00,,0825.6,5.00,0.00,22.5,20.7,00.0,31.5,24.0,03.7,-000.4,0006.81,0004.31,0004.08
2023-01-30 07:35:00,,0825.6,5.01,0.00,22.5,21.2,00.0,31.4,24.1,03.7,-000.5,0006.62,0004.23,0004.02
2023-01-30 07:36:00,,0825.6,4.99,0.00,22.6,22.2,00.0,31.4,24.4,03.7,-000.1,0006.49,0004.18,0003.96
2023-01-30 07:37:00,,0825.5,5.00,0.00,22.7,23.0,00.0,31.4,24.7,03.7,-000.2,0006.22,0004.10,0003.91
2023-01-30 07:38:00,,0825.5,5.00,0.00,22.8,23.1,00.0,31.5,24.7,03.7,-000.2,0006.02,0004.04,0003.86
2023-01-30 07:39:00,,0825.5,5.02,0.00,22.8,22.4,00.0,31.5,24.6,03.7,0000.2,0005.84,0003.99,0003.83
2023-01-30 07:40:00,,0825.4,5.01,0.00,22.7,21.8,00.0,31.5,24.4,03.7,0000.1,0005.68,0003.94,0003.79
2023-01-30 07:41:00,,0825.5,5.00,0.00,22.7,21.3,00.0,31.5,24.3,03.7,0000.3,0005.70,0003.93,0003.75
2023-01-30 07:42:00,,0825.5,5.00,0.00,22.6,20.9,00.0,31.5,24.1,03.7,0000.0,0005.60,0003.90,0003.72
2023-01-30 07:43:00,,0825.4,5.01,0.00,22.5,20.6,00.0,31.5,24.0,03.7,0000.0,0005.59,0003.87,0003.69
2023-01-30 07:44:00,,0825.4,5.01,0.00,22.5,20.5,00.0,31.4,24.0,03.7,0000.0,0005.63,0003.86,0003.66
2023-01-30 07:45:00,,0825.4,5.00,0.00,22.5,21.4,00.0,31.4,24.2,03.7,0000.0,0005.56,0003.84,0003.65
2023-01-30 07:46:00,,0825.5,4.99,0.00,22.6,22.4,00.0,31.4,24.5,03.7,0000.0,0005.45,0003.81,0003.63
2023-01-30 07:47:00,,0825.6,5.00,0.00,22.7,23.1,00.0,31.4,24.7,03.7,0000.0,0005.44,0003.79,0003.61
2023-01-30 07:48:00,,0825.6,4.99,0.00,22.8,22.8,00.0,31.4,24.6,03.6,0000.3,0005.44,0003.79,0003.60
2023-01-30 07:49:00,,0825.4,5.01,0.00,22.7,22.2,00.0,31.5,24.5,03.6,0000.0,0005.47,0003.80,0003.60
2023-01-30 07:50:00,,0825.3,4.96,0.00,22.7,21.7,00.0,31.5,24.3,03.6,0000.0,0005.51,0003.79,0003.59
2023-01-30 07:51:00,,0825.3,5.01,0.00,22.6,21.2,00.0,31.5,24.2,03.6,0000.0,0005.45,0003.78,0003.58
2023-01-30 07:52:00,,0825.3,4.99,0.00,22.6,20.9,00.0,31.5,24.1,03.6,0000.0,0005.31,0003.74,0003.57
2023-01-30 07:53:00,,0825.4,4.99,0.00,22.5,20.7,00.0,31.4,24.0,03.6,-000.3,0005.27,0003.74,0003.56
2023-01-30 07:54:00,,0825.4,4.99,0.00,22.5,21.0,00.0,31.4,24.1,03.6,-000.7,0005.22,0003.72,0003.54
2023-01-30 07:55:00,,0825.5,5.00,0.00,22.6,21.9,00.0,31.4,24.3,03.6,-001.4,0005.21,0003.70,0003.53
2023-01-30 07:56:00,,0825.5,5.00,0.00,22.7,22.8,00.0,31.4,24.6,03.6,-000.8,0005.19,0003.69,0003.51
2023-01-30 07:57:00,,0825.4,4.97,0.00,22.8,23.1,00.0,31.4,24.7,03.6,0000.0,0005.28,0003.71,0003.51
2023-01-30 07:58:00,,0825.4,5.00,0.00,22.8,22.6,00.0,31.5,24.6,03.6,0000.0,0005.15,0003.68,0003.50
2023-01-30 07:59:00,,0825.3,5.00,0.00,22.7,22.0,00.0,31.5,24.5,03.6,0000.0,0005.07,0003.66,0003.49
